GB 1

Satellite information

Favourite Embed

Satellite Type and Status

PAYLOADIN ORBIT

Key statistics

Satellite GB 1 at a glance.

Uptime

15528

Days in orbit

Revolutions

≈ 13.8

Per day

Orbit

LEO

Low Earth Orbit

Inclination

63.3

Latest

Satellite identification and parameters

Extended collection of information and parameters for GB 1.

Object identification

Identified? True

Debris? False

Object name: GB 1

International designator: 1983-056C

Object number (NORAD): 14143

Object ID (CCSDS): 14143

Country: UNITED STATES OF AMERICA (US)

Current information (Y/N): Y

RCS size: LARGE

Orbital parameters

Period: 104.525 minutes

Inclination: 63.3107 deg

SMA: 7350.317 km

Apoapsis: 1517.791 km

Periapsis: 426.573 km

RAAN: 49.3537 deg

Eccentricy: 0.07422931

Argument of periapsis: 128.4409 deg

Mean anomaly: 238.5682 deg

Mean motion: 13.77665085 rev/day

Mean motion (dot): 0.00004585 rev/day2

B* drag term: 0.000533331 1/REarth

Two-line elements (TLE)

Creation date: Dec. 12, 2025, 10:14 a.m.

Reference frame: TEME

Reference center: EARTH

Epoch: Dec. 12, 2025, 6:34 a.m. UTC

TLE line 0: 0 GB 1

TLE line 1: 1 14143U 83056C 25346.27405723 .00004585 00000-0 53333-3 0 9997

TLE line 2: 2 14143 63.3107 49.3537 0742293 128.4409 238.5682 13.77665085320873

Live tracking on map

Real-time ground track for satellite GB 1.

In-orbit conjunctions

A list of the most updated potential collisions computed for object GB 1.

Target Orbit TCA Probability of collision Miss distance Type
SL-8 DEB LEO 2025-06-24 14:51:02 0.0002375993 962.0 (m) DEBRIS
CZ-4 DEB SSO 2025-04-28 21:23:54 0.0001161282 574.0 (m) DEBRIS

Associated space launch

The Parcae satellites were passive ELINT satellites. MSD satellites were dispensers of triplets of ocean surveillance satellites.

GB 1 was lifted into orbit during the mission ‘Atlas H | Parcae 6A,B,C & MSD 6’, on board a Atlas H space rocket.

The launch took place on June 9, 1983, 11:23 p.m. from Space Launch Complex 3E.

For more information about the launch, click the button.

Launch to space Atlas H | Parcae 6A,B,C & MSD 6
Atlas H | Parcae 6A,B,C & MSD 6

Agency: N/A

Status: Launch Successful

Launch date: June 9, 1983, 11:23 p.m. UTC

Rocket: Atlas H

Launch pad: Space Launch Complex 3E

Location: Vandenberg SFB, CA, USA

...

Latest news about this satellite

There are no fresh news available about this satellite. Check back as we update our databases every day.


Newsletter sign-up

Weekly statistics, charts and insights to help you stay on top of the space industry.